Simultaneous Nadir Overpasses (SNOs) Predictions

Prediction of SNOs between GOES-15 and METOP-C Satellite Orbit:

Table of predicted SNOs for the next 14.0 days since TLE Epoch: 1/29/2024
Index Date Time (GOES-15) GOES-15 Lat,Lon METOP-C Lat,Lon Distance(km) Time Diff (sec)
1 01/30/2024 05:29:00 0.02, 61.69 0.39, 59.87 206.02 80
2 01/31/2024 05:11:00 0.01, 61.67 -0.70, 64.88 365.57 80
3 02/01/2024 17:30:00 -0.01, 61.65 -0.32, 60.28 155.98 80
4 02/02/2024 17:06:40 -0.01, 61.64 0.78, 65.28 414.26 80
5 02/04/2024 05:25:30 0.01, 61.62 0.20, 60.72 102.71 80
6 02/05/2024 05:07:30 -0.01, 61.61 -0.90, 65.72 467.65 80
7 02/06/2024 17:26:30 0.00, 61.60 -0.10, 61.12 54.41 80
8 02/09/2024 05:21:59 -0.00, 61.60 0.02, 61.57 4.05 80
9 02/11/2024 17:20:19 -0.00, 61.58 0.10, 61.97 44.62 80
